LAOSAT 1

Last updated on Thu Nov 21 2024 00:02:43 GMT+0000 (Coordinated Universal Time)

1 41034U 15067A 24325.57467480 -.00000342 00000+0 00000+0 0 9996 2 41034 0.0195 228.6394 0001459 322.4450 204.3748 1.00268057 33106
UTC large
Height (km)
Speed (km/s)
/
Latitude / Longitude
Inclination (degrees)
Orbital Period (minutes)
Azimuth
Elevation
Range (km)
Doppler Factor

Next 0 passes for location: London (51.5072 / 0.1276)

Sorry there are no passes over London.